When you browse on this site, cookies collect data to enhance your experience and personalize the content and advertising you see.
Visit our Privacy Policy to learn more. By continuing to use the site, you agree to this use of cookies and data.
  • In France
  • List of Countries
  • For 7 days
  • Water Temperature
  • Weather Map
  • Weather Widgets
  • user-avatar
    Login

    Hourly Weather Baden-Baden

    Today, 19 September, Thursday

    Time Temperature Precipitation Wind Pressure Humidity
    00:00 +8°C° 0 mm 2 mps 737 mmHg 71%
    01:00 +8°C° 0 mm 3 mps 737 mmHg 72%
    02:00 +8°C° 0 mm 2 mps 737 mmHg 73%
    03:00 +8°C° 0 mm 2 mps 737 mmHg 73%
    04:00 +7°C° 0 mm 2 mps 736 mmHg 73%
    05:00 +7°C° 0 mm 2 mps 737 mmHg 74%
    06:00 +7°C° 0 mm 2 mps 737 mmHg 74%
    07:00 +8°C° 0 mm 2 mps 737 mmHg 74%
    08:00 +9°C° 0 mm 3 mps 738 mmHg 67%
    09:00 +11°C° 0 mm 4 mps 738 mmHg 60%
    10:00 +13°C° 0 mm 4 mps 738 mmHg 53%
    11:00 +14°C° 0 mm 4 mps 738 mmHg 49%
    12:00 +15°C° 0 mm 4 mps 738 mmHg 45%
    13:00 +17°C° 0 mm 4 mps 738 mmHg 42%
    14:00 +17°C° 0 mm 4 mps 738 mmHg 42%
    15:00 +17°C° 0 mm 4 mps 738 mmHg 41%
    16:00 +16°C° 0 mm 5 mps 737 mmHg 41%
    17:00 +14°C° 0 mm 4 mps 737 mmHg 47%
    18:00 +12°C° 0 mm 3 mps 737 mmHg 53%
    19:00 +10°C° 0 mm 3 mps 738 mmHg 59%
    20:00 +9°C° 0 mm 2 mps 738 mmHg 62%
    21:00 +8°C° 0 mm 2 mps 738 mmHg 65%
    22:00 +8°C° 0 mm 2 mps 738 mmHg 69%
    23:00 +7°C° 0 mm 2 mps 738 mmHg 71%

    Tomorrow, 20 September, Friday

    Time Temperature Precipitation Wind Pressure Humidity
    00:00 +7°C° 0 mm 2 mps 738 mmHg 72%
    01:00 +6°C° 0 mm 2 mps 738 mmHg 74%
    02:00 +6°C° 0 mm 2 mps 738 mmHg 75%
    03:00 +6°C° 0 mm 2 mps 738 mmHg 76%
    04:00 +6°C° 0 mm 2 mps 737 mmHg 77%
    05:00 +6°C° 0 mm 2 mps 737 mmHg 76%
    06:00 +6°C° 0 mm 2 mps 737 mmHg 75%
    07:00 +6°C° 0 mm 2 mps 737 mmHg 74%
    08:00 +8°C° 0 mm 2 mps 737 mmHg 65%
    09:00 +11°C° 0 mm 3 mps 737 mmHg 56%
    10:00 +13°C° 0 mm 3 mps 737 mmHg 47%
    11:00 +16°C° 0 mm 3 mps 737 mmHg 44%
    12:00 +17°C° 0 mm 4 mps 737 mmHg 40%
    13:00 +18°C° 0 mm 4 mps 736 mmHg 37%
    14:00 +18°C° 0 mm 4 mps 736 mmHg 38%
    15:00 +19°C° 0 mm 4 mps 736 mmHg 39%
    16:00 +19°C° 0 mm 4 mps 735 mmHg 40%
    17:00 +16°C° 0 mm 3 mps 735 mmHg 48%
    18:00 +13°C° 0 mm 3 mps 735 mmHg 56%
    19:00 +11°C° 0 mm 3 mps 735 mmHg 64%
    20:00 +10°C° 0 mm 3 mps 735 mmHg 67%
    21:00 +10°C° 0 mm 2 mps 734 mmHg 69%
    22:00 +9°C° 0 mm 2 mps 734 mmHg 72%
    23:00 +8°C° 0 mm 2 mps 734 mmHg 72%

    Day after tomorrow, 21 September, Saturday

    Time Temperature Precipitation Wind Pressure Humidity
    00:00 +8°C° 0 mm 2 mps 734 mmHg 73%
    01:00 +8°C° 0 mm 2 mps 734 mmHg 73%
    02:00 +7°C° 0 mm 2 mps 733 mmHg 73%
    03:00 +7°C° 0 mm 2 mps 733 mmHg 73%
    04:00 +7°C° 0 mm 2 mps 733 mmHg 73%
    05:00 +7°C° 0 mm 2 mps 732 mmHg 72%
    06:00 +7°C° 0 mm 2 mps 732 mmHg 72%
    07:00 +8°C° 0 mm 1 mps 732 mmHg 71%
    08:00 +11°C° 0 mm 1 mps 732 mmHg 63%
    09:00 +13°C° 0 mm 1 mps 732 mmHg 56%
    10:00 +16°C° 0 mm 1 mps 732 mmHg 48%
    11:00 +19°C° 0 mm 1 mps 732 mmHg 45%
    12:00 +21°C° 0 mm 1 mps 732 mmHg 42%
    13:00 +21°C° 0 mm 2 mps 731 mmHg 39%
    14:00 +23°C° 0 mm 2 mps 731 mmHg 40%
    15:00 +23°C° 0 mm 2 mps 730 mmHg 41%
    16:00 +23°C° 0 mm 2 mps 730 mmHg 42%
    17:00 +20°C° 0 mm 2 mps 729 mmHg 52%
    18:00 +17°C° 0 mm 2 mps 729 mmHg 61%
    19:00 +15°C° 0 mm 2 mps 729 mmHg 70%
    20:00 +14°C° 0 mm 2 mps 729 mmHg 75%
    21:00 +14°C° 0 mm 2 mps 728 mmHg 79%
    22:00 +13°C° 0 mm 2 mps 728 mmHg 84%
    23:00 +13°C° 0 mm 1 mps 728 mmHg 84%

    22 September, Sunday

    Time Temperature Precipitation Wind Pressure Humidity
    00:00 +13°C° 0 mm 1 mps 728 mmHg 84%
    01:00 +12°C° 0 mm 1 mps 728 mmHg 84%
    02:00 +12°C° 0 mm 1 mps 728 mmHg 84%
    03:00 +12°C° 0 mm 1 mps 727 mmHg 83%
    04:00 +12°C° 0 mm 1 mps 727 mmHg 83%
    05:00 +12°C° 0 mm 1 mps 727 mmHg 81%
    06:00 +13°C° 0 mm 1 mps 727 mmHg 80%
    07:00 +12°C° 0 mm 0 mps 727 mmHg 79%
    08:00 +14°C° 0 mm 0 mps 727 mmHg 74%
    09:00 +15°C° 0 mm 0 mps 727 mmHg 68%
    10:00 +19°C° 0 mm 1 mps 727 mmHg 63%
    11:00 +19°C° 0 mm 1 mps 727 mmHg 63%
    12:00 +20°C° 0 mm 1 mps 727 mmHg 64%
    13:00 +20°C° 0 mm 1 mps 726 mmHg 64%
    14:00 +21°C° 0 mm 1 mps 726 mmHg 62%
    15:00 +22°C° 0 mm 1 mps 725 mmHg 59%
    16:00 +23°C° 0 mm 1 mps 725 mmHg 57%
    17:00 +21°C° 0 mm 1 mps 724 mmHg 62%
    18:00 +19°C° 0 mm 1 mps 724 mmHg 68%
    19:00 +18°C° 0 mm 1 mps 724 mmHg 73%
    20:00 +16°C° 0 mm 1 mps 724 mmHg 74%
    21:00 +16°C° 0 mm 1 mps 724 mmHg 75%
    22:00 +16°C° 0 mm 1 mps 724 mmHg 76%
    23:00 +16°C° 0.5 mm 2 mps 724 mmHg 80%

    23 September, Monday

    Time Temperature Precipitation Wind Pressure Humidity
    00:00 +15°C° 0.5 mm 4 mps 725 mmHg 84%
    01:00 +15°C° 0.5 mm 5 mps 726 mmHg 87%
    02:00 +14°C° 0.9 mm 5 mps 726 mmHg 90%
    03:00 +13°C° 0.9 mm 5 mps 727 mmHg 92%
    04:00 +13°C° 0.9 mm 5 mps 727 mmHg 94%
    05:00 +12°C° 1 mm 4 mps 727 mmHg 94%
    06:00 +12°C° 1 mm 4 mps 728 mmHg 95%
    07:00 +12°C° 1 mm 3 mps 728 mmHg 95%
    08:00 +12°C° 0.8 mm 3 mps 728 mmHg 94%
    09:00 +13°C° 0.8 mm 3 mps 729 mmHg 93%
    10:00 +13°C° 0.8 mm 4 mps 729 mmHg 92%
    11:00 +13°C° 0.3 mm 4 mps 729 mmHg 90%
    12:00 +14°C° 0.3 mm 3 mps 729 mmHg 87%
    13:00 +14°C° 0.3 mm 3 mps 729 mmHg 85%
    14:00 +14°C° 0.1 mm 3 mps 729 mmHg 81%
    15:00 +16°C° 0.1 mm 3 mps 729 mmHg 78%
    16:00 +16°C° 0.1 mm 3 mps 729 mmHg 75%
    17:00 +14°C° 0 mm 3 mps 729 mmHg 79%
    18:00 +14°C° 0 mm 2 mps 729 mmHg 83%
    19:00 +13°C° 0 mm 1 mps 730 mmHg 87%
    20:00 +13°C° 0 mm 1 mps 730 mmHg 87%
    21:00 +12°C° 0 mm 1 mps 730 mmHg 88%
    22:00 +12°C° 0 mm 1 mps 731 mmHg 89%
    23:00 +12°C° 0 mm 1 mps 731 mmHg 90%

    24 September, Tuesday

    Time Temperature Precipitation Wind Pressure Humidity
    00:00 +12°C° 0 mm 1 mps 731 mmHg 91%
    01:00 +11°C° 0 mm 1 mps 731 mmHg 92%
    02:00 +11°C° 0 mm 1 mps 731 mmHg 92%
    03:00 +11°C° 0 mm 1 mps 730 mmHg 92%
    04:00 +11°C° 0 mm 1 mps 730 mmHg 93%
    05:00 +11°C° 0 mm 1 mps 730 mmHg 92%
    06:00 +11°C° 0 mm 1 mps 730 mmHg 92%
    07:00 +11°C° 0 mm 1 mps 730 mmHg 91%
    08:00 +13°C° 0 mm 1 mps 730 mmHg 82%
    09:00 +15°C° 0 mm 1 mps 730 mmHg 74%
    10:00 +18°C° 0 mm 1 mps 729 mmHg 65%
    11:00 +19°C° 0 mm 1 mps 729 mmHg 60%
    12:00 +20°C° 0 mm 1 mps 729 mmHg 56%
    13:00 +20°C° 0 mm 2 mps 728 mmHg 51%
    14:00 +20°C° 0 mm 2 mps 728 mmHg 53%
    15:00 +20°C° 0 mm 2 mps 728 mmHg 54%
    16:00 +19°C° 0 mm 2 mps 728 mmHg 56%
    17:00 +18°C° 0.1 mm 2 mps 728 mmHg 65%
    18:00 +16°C° 0.1 mm 2 mps 728 mmHg 74%
    19:00 +14°C° 0.1 mm 2 mps 728 mmHg 83%
    20:00 +14°C° 0 mm 2 mps 727 mmHg 83%
    21:00 +13°C° 0 mm 3 mps 727 mmHg 84%
    22:00 +12°C° 0 mm 3 mps 727 mmHg 84%
    23:00 +12°C° 0.9 mm 3 mps 727 mmHg 87%
    Show more